This is the latest recevied weather packets stored in our database for station/object EA5JUX. If no packets are shown the sender has not sent any weather packets the latest 10 day(s).
| Time | Temp. | Humidity | Pressure | Rain* | Wind** | Luminosity | Snow |
|---|---|---|---|---|---|---|---|
| 1788071552 | 20.56° C | 90% | 1015.9 hPa | 0 mm | - | - | - |
| 1788071235 | 19.44° C | 90% | 1016.1 hPa | 0 mm | - | - | - |
| 1788070935 | 19.44° C | 90% | 1016.2 hPa | 0 mm | - | - | - |
| 1788070655 | 20.56° C | 90% | 1016.2 hPa | 0 mm | - | - | - |
| 1788070334 | 19.44° C | 90% | 1016 hPa | 0 mm | - | - | - |
| 1788070034 | 18.89° C | 90% | 1016.2 hPa | 0 mm | - | - | - |
| 1788069735 | 18.33° C | 90% | 1016.1 hPa | 0 mm | - | - | - |
| 1788069434 | 18.33° C | 90% | 1016 hPa | 0 mm | - | - | - |
| 1788069148 | 18.33° C | 90% | 1016.3 hPa | 0 mm | - | - | - |
| 1788068834 | 17.78° C | 90% | 1016 hPa | 0 mm | - | - | - |
| 1788068534 | 17.78° C | 90% | 1015.8 hPa | 0 mm | - | - | - |
| 1788068234 | 17.78° C | 90% | 1016.1 hPa | 0 mm | - | - | - |
| 1788067934 | 17.78° C | 90% | 1015.9 hPa | 0 mm | - | - | - |
| 1788067634 | 17.78° C | 90% | 1015.8 hPa | 0 mm | - | - | - |
| 1788067342 | 17.78° C | 90% | 1015.9 hPa | 0 mm | - | - | - |
| 1788067035 | 17.78° C | 90% | 1015.8 hPa | 0 mm | - | - | - |
| 1788066735 | 18.33° C | 90% | 1015.8 hPa | 0 mm | - | - | - |
| 1788066435 | 18.33° C | 90% | 1016 hPa | 0 mm | - | - | - |
| 1788066135 | 18.33° C | 89% | 1015.7 hPa | 0 mm | - | - | - |
| 1788065842 | 18.33° C | 90% | 1015.7 hPa | 0 mm | - | - | - |
| 1788065534 | 18.33° C | 89% | 1015.8 hPa | 0 mm | - | - | - |
| 1788065234 | 18.33° C | 89% | 1015.7 hPa | 0 mm | - | - | - |
| 1788064935 | 18.89° C | 89% | 1015.7 hPa | 0 mm | - | - | - |
| 1788064643 | 18.33° C | 89% | 1015.8 hPa | 0 mm | - | - | - |
| 1788064335 | 18.89° C | 89% | 1015.7 hPa | 0 mm | - | - | - |
* Rain latest hour (hover to see other rain measurements)
** Current wind speed in m/s (hover to see current wind gust speed)